Time,TemperatureF,DewpointF,PressureIn,WindDirection,WindDirectionDegrees,WindSpeedMPH,WindSpeedGustMPH,Humidity,HourlyPrecipIn,Conditions,Clouds,dailyrainin,SolarRadiationWatts/m^2,SoftwareType,DateUTC
2013-04-29 00:13:00,51.0,51.0,-100.00,SE,137,5.0,11.0,100,0.00,,,0.00,1.000000,,2013-04-29 04:13:00,
2013-04-29 00:23:00,51.0,51.0,-100.00,SE,137,5.0,11.0,100,0.00,,,0.00,1.000000,,2013-04-29 04:23:00,
2013-04-29 00:33:00,51.0,51.0,-100.00,SE,137,5.0,11.0,100,0.00,,,0.00,1.000000,,2013-04-29 04:33:00,
2013-04-29 00:43:00,51.0,51.0,-100.00,SE,137,5.0,11.0,100,0.00,,,0.00,1.000000,,2013-04-29 04:43:00,
2013-04-29 01:12:00,51.0,51.0,-100.00,South,173,4.0,8.0,100,0.00,,,0.00,1.000000,,2013-04-29 05:12:00,
2013-04-29 01:22:00,51.0,51.0,-100.00,South,173,4.0,8.0,100,0.00,,,0.00,1.000000,,2013-04-29 05:22:00,
2013-04-29 01:32:00,51.0,51.0,-100.00,South,173,4.0,8.0,100,0.00,,,0.00,1.000000,,2013-04-29 05:32:00,
2013-04-29 01:42:00,51.0,51.0,-100.00,South,173,4.0,8.0,100,0.00,,,0.00,1.000000,,2013-04-29 05:42:00,
2013-04-29 02:12:00,50.0,50.0,-100.00,SE,135,3.0,6.0,100,0.00,,,0.00,1.000000,,2013-04-29 06:12:00,
2013-04-29 02:22:00,50.0,50.0,-100.00,SE,135,3.0,6.0,100,0.00,,,0.00,1.000000,,2013-04-29 06:22:00,
2013-04-29 02:32:00,50.0,50.0,-100.00,SE,135,3.0,6.0,100,0.00,,,0.00,1.000000,,2013-04-29 06:32:00,
2013-04-29 02:42:00,50.0,50.0,-100.00,SE,135,3.0,6.0,100,0.00,,,0.00,1.000000,,2013-04-29 06:42:00,
2013-04-29 03:11:00,50.0,50.0,-100.00,SE,132,1.0,5.0,100,0.00,,,0.00,1.000000,,2013-04-29 07:11:00,
2013-04-29 03:22:00,50.0,50.0,-100.00,SE,132,1.0,5.0,100,0.00,,,0.00,1.000000,,2013-04-29 07:22:00,
2013-04-29 03:32:00,50.0,50.0,-100.00,SE,132,1.0,5.0,100,0.00,,,0.00,1.000000,,2013-04-29 07:32:00,
2013-04-29 03:42:00,50.0,50.0,-100.00,SE,132,1.0,5.0,100,0.00,,,0.00,1.000000,,2013-04-29 07:42:00,
2013-04-29 04:11:00,50.0,50.0,-100.00,NNW,344,0.0,4.0,100,0.00,,,0.00,1.000000,,2013-04-29 08:11:00,
2013-04-29 04:22:00,50.0,50.0,-100.00,NNW,344,0.0,4.0,100,0.00,,,0.00,1.000000,,2013-04-29 08:22:00,
2013-04-29 04:32:00,50.0,50.0,-100.00,NNW,344,0.0,4.0,100,0.00,,,0.00,1.000000,,2013-04-29 08:32:00,
2013-04-29 04:42:00,50.0,50.0,-100.00,NNW,344,0.0,4.0,100,0.00,,,0.00,1.000000,,2013-04-29 08:42:00,
2013-04-29 05:12:00,50.0,50.0,-100.00,ESE,119,0.0,2.0,100,0.00,,,0.00,1.000000,,2013-04-29 09:12:00,
2013-04-29 05:22:00,50.0,50.0,-100.00,ESE,119,0.0,2.0,100,0.00,,,0.00,1.000000,,2013-04-29 09:22:00,
2013-04-29 05:33:00,50.0,50.0,-100.00,ESE,119,0.0,2.0,100,0.00,,,0.00,1.000000,,2013-04-29 09:33:00,
2013-04-29 05:42:00,50.0,50.0,-100.00,ESE,119,0.0,2.0,100,0.00,,,0.00,1.000000,,2013-04-29 09:42:00,
2013-04-29 06:12:00,50.0,50.0,-100.00,South,187,0.0,0.0,100,0.00,,,0.00,1.000000,,2013-04-29 10:12:00,
2013-04-29 06:23:00,50.0,50.0,-100.00,South,187,0.0,0.0,100,0.00,,,0.00,1.000000,,2013-04-29 10:23:00,
2013-04-29 06:32:00,50.0,50.0,-100.00,South,187,0.0,0.0,100,0.00,,,0.00,1.000000,,2013-04-29 10:32:00,
2013-04-29 06:42:00,50.0,50.0,-100.00,South,187,0.0,0.0,100,0.00,,,0.00,1.000000,,2013-04-29 10:42:00,
2013-04-29 07:12:00,50.0,50.0,-100.00,SSW,208,0.0,3.0,100,0.00,,,0.00,1.000000,,2013-04-29 11:12:00,
2013-04-29 07:22:00,50.0,50.0,-100.00,SSW,208,0.0,3.0,100,0.00,,,0.00,1.000000,,2013-04-29 11:22:00,
2013-04-29 07:32:00,50.0,50.0,-100.00,SSW,208,0.0,3.0,100,0.00,,,0.00,1.000000,,2013-04-29 11:32:00,
2013-04-29 07:42:00,50.0,50.0,-100.00,SSW,208,0.0,3.0,100,0.00,,,0.00,1.000000,,2013-04-29 11:42:00,
2013-04-29 08:12:00,50.0,50.0,-100.00,ESE,115,3.0,4.0,100,0.00,,,0.00,21.000000,,2013-04-29 12:12:00,
2013-04-29 08:22:00,50.0,50.0,-100.00,ESE,115,3.0,4.0,100,0.00,,,0.00,21.000000,,2013-04-29 12:22:00,
2013-04-29 08:32:00,50.0,50.0,-100.00,ESE,115,3.0,4.0,100,0.00,,,0.00,21.000000,,2013-04-29 12:32:00,
2013-04-29 08:42:00,50.0,50.0,-100.00,ESE,115,3.0,4.0,100,0.00,,,0.00,21.000000,,2013-04-29 12:42:00,
2013-04-29 09:11:00,51.0,51.0,-100.00,WSW,252,1.0,3.0,100,0.00,,,0.00,56.000000,,2013-04-29 13:11:00,
2013-04-29 09:21:00,51.0,51.0,-100.00,WSW,252,1.0,3.0,100,0.00,,,0.00,56.000000,,2013-04-29 13:21:00,
2013-04-29 09:32:00,51.0,51.0,-100.00,WSW,252,1.0,3.0,100,0.00,,,0.00,56.000000,,2013-04-29 13:32:00,
2013-04-29 09:42:00,51.0,51.0,-100.00,WSW,252,1.0,3.0,100,0.00,,,0.00,56.000000,,2013-04-29 13:42:00,
2013-04-29 10:12:00,53.0,53.0,-100.00,WSW,239,4.0,5.0,100,0.00,,,0.00,109.000000,,2013-04-29 14:12:00,
2013-04-29 10:22:00,53.0,53.0,-100.00,WSW,239,4.0,5.0,100,0.00,,,0.00,109.000000,,2013-04-29 14:22:00,
2013-04-29 10:32:00,53.0,53.0,-100.00,WSW,239,4.0,5.0,100,0.00,,,0.00,109.000000,,2013-04-29 14:32:00,
2013-04-29 10:42:00,53.0,53.0,-100.00,WSW,239,4.0,5.0,100,0.00,,,0.00,109.000000,,2013-04-29 14:42:00,
2013-04-29 11:12:00,58.0,50.0,-100.00,SSW,205,3.0,6.0,76,0.00,,,0.00,285.000000,,2013-04-29 15:12:00,
2013-04-29 11:22:00,58.0,50.0,-100.00,SSW,205,3.0,6.0,76,0.00,,,0.00,285.000000,,2013-04-29 15:22:00,
2013-04-29 11:33:00,58.0,50.0,-100.00,SSW,205,3.0,6.0,76,0.00,,,0.00,285.000000,,2013-04-29 15:33:00,
2013-04-29 11:43:00,58.0,50.0,-100.00,SSW,205,3.0,6.0,76,0.00,,,0.00,285.000000,,2013-04-29 15:43:00,
2013-04-29 12:13:00,63.0,51.0,-100.00,SE,143,3.0,7.0,64,0.00,,,0.00,693.000000,,2013-04-29 16:13:00,
2013-04-29 12:23:00,63.0,51.0,-100.00,SE,143,3.0,7.0,64,0.00,,,0.00,693.000000,,2013-04-29 16:23:00,
2013-04-29 12:33:00,63.0,51.0,-100.00,SE,143,3.0,7.0,64,0.00,,,0.00,693.000000,,2013-04-29 16:33:00,
2013-04-29 12:42:00,63.0,51.0,-100.00,SE,143,3.0,7.0,64,0.00,,,0.00,693.000000,,2013-04-29 16:42:00,
2013-04-29 13:12:00,65.0,50.0,-100.00,ESE,114,6.0,9.0,59,0.00,,,0.00,775.000000,,2013-04-29 17:12:00,
2013-04-29 13:23:00,65.0,50.0,-100.00,ESE,114,6.0,9.0,59,0.00,,,0.00,775.000000,,2013-04-29 17:23:00,
2013-04-29 13:32:00,65.0,50.0,-100.00,ESE,114,6.0,9.0,59,0.00,,,0.00,775.000000,,2013-04-29 17:32:00,
2013-04-29 13:42:00,65.0,50.0,-100.00,ESE,114,6.0,9.0,59,0.00,,,0.00,775.000000,,2013-04-29 17:42:00,
2013-04-29 14:13:00,67.0,51.0,-100.00,SE,131,7.0,12.0,57,0.00,,,0.00,613.000000,,2013-04-29 18:13:00,
2013-04-29 14:22:00,67.0,51.0,-100.00,SE,131,7.0,12.0,57,0.00,,,0.00,613.000000,,2013-04-29 18:22:00,
2013-04-29 14:32:00,67.0,51.0,-100.00,SE,131,7.0,12.0,57,0.00,,,0.00,613.000000,,2013-04-29 18:32:00,
2013-04-29 14:42:00,67.0,51.0,-100.00,SE,131,7.0,12.0,57,0.00,,,0.00,613.000000,,2013-04-29 18:42:00,
2013-04-29 15:12:00,65.0,52.0,-100.00,SE,140,9.0,15.0,63,0.00,,,0.00,699.000000,,2013-04-29 19:12:00,
2013-04-29 15:22:00,65.0,52.0,-100.00,SE,140,9.0,15.0,63,0.00,,,0.00,699.000000,,2013-04-29 19:22:00,
2013-04-29 15:32:00,65.0,52.0,-100.00,SE,140,9.0,15.0,63,0.00,,,0.00,699.000000,,2013-04-29 19:32:00,
2013-04-29 15:42:00,65.0,52.0,-100.00,SE,140,9.0,15.0,63,0.00,,,0.00,699.000000,,2013-04-29 19:42:00,
2013-04-29 16:12:00,64.0,52.0,-100.00,SE,135,8.0,15.0,65,0.00,,,0.00,343.000000,,2013-04-29 20:12:00,
2013-04-29 16:22:00,64.0,52.0,-100.00,SE,135,8.0,15.0,65,0.00,,,0.00,343.000000,,2013-04-29 20:22:00,
2013-04-29 16:32:00,64.0,52.0,-100.00,SE,135,8.0,15.0,65,0.00,,,0.00,343.000000,,2013-04-29 20:32:00,
2013-04-29 16:42:00,64.0,52.0,-100.00,SE,135,8.0,15.0,65,0.00,,,0.00,343.000000,,2013-04-29 20:42:00,
2013-04-29 17:11:00,63.0,51.0,-100.00,ESE,118,7.0,13.0,66,0.00,,,0.00,161.000000,,2013-04-29 21:11:00,
2013-04-29 17:22:00,63.0,51.0,-100.00,ESE,118,7.0,13.0,66,0.00,,,0.00,161.000000,,2013-04-29 21:22:00,
2013-04-29 17:33:00,63.0,51.0,-100.00,ESE,118,7.0,13.0,66,0.00,,,0.00,161.000000,,2013-04-29 21:33:00,
2013-04-29 17:43:00,63.0,51.0,-100.00,ESE,118,7.0,13.0,66,0.00,,,0.00,161.000000,,2013-04-29 21:43:00,
2013-04-29 18:13:00,62.0,51.0,-100.00,SSE,167,7.0,14.0,67,0.00,,,0.00,85.000000,,2013-04-29 22:13:00,
2013-04-29 18:23:00,62.0,51.0,-100.00,SSE,167,7.0,14.0,67,0.00,,,0.00,85.000000,,2013-04-29 22:23:00,
2013-04-29 18:32:00,62.0,51.0,-100.00,SSE,167,7.0,14.0,67,0.00,,,0.00,85.000000,,2013-04-29 22:32:00,
2013-04-29 18:42:00,62.0,51.0,-100.00,SSE,167,7.0,14.0,67,0.00,,,0.00,85.000000,,2013-04-29 22:42:00,
2013-04-29 19:12:00,61.0,51.0,-100.00,SSE,154,7.0,16.0,70,0.00,,,0.00,80.000000,,2013-04-29 23:12:00,
2013-04-29 19:22:00,61.0,51.0,-100.00,SSE,154,7.0,16.0,70,0.00,,,0.00,80.000000,,2013-04-29 23:22:00,
2013-04-29 19:32:00,61.0,51.0,-100.00,SSE,154,7.0,16.0,70,0.00,,,0.00,80.000000,,2013-04-29 23:32:00,
2013-04-29 19:42:00,61.0,51.0,-100.00,SSE,154,7.0,16.0,70,0.00,,,0.00,80.000000,,2013-04-29 23:42:00,
2013-04-29 20:11:00,55.0,51.0,-100.00,ESE,117,5.0,14.0,85,0.00,,,0.00,31.000000,,2013-04-30 00:11:00,
2013-04-29 20:22:00,55.0,51.0,-100.00,ESE,117,5.0,14.0,85,0.00,,,0.00,31.000000,,2013-04-30 00:22:00,
2013-04-29 20:32:00,55.0,51.0,-100.00,ESE,117,5.0,14.0,85,0.00,,,0.00,31.000000,,2013-04-30 00:32:00,
2013-04-29 20:42:00,55.0,51.0,-100.00,ESE,117,5.0,14.0,85,0.00,,,0.00,31.000000,,2013-04-30 00:42:00,
2013-04-29 21:11:00,53.0,51.0,-100.00,ESE,120,3.0,6.0,92,0.00,,,0.00,8.000000,,2013-04-30 01:11:00,
2013-04-29 21:22:00,53.0,51.0,-100.00,ESE,120,3.0,6.0,92,0.00,,,0.00,8.000000,,2013-04-30 01:22:00,
2013-04-29 21:32:00,53.0,51.0,-100.00,ESE,120,3.0,6.0,92,0.00,,,0.00,8.000000,,2013-04-30 01:32:00,
2013-04-29 21:42:00,53.0,51.0,-100.00,ESE,120,3.0,6.0,92,0.00,,,0.00,8.000000,,2013-04-30 01:42:00,